Flag for Canada Weather past 2 weeks in Quispamsis, New Brunswick, Canada

Now
36 °F

Clear.


Feels Like: 29 °F
Forecast: 30 / 39 °F
Wind: 8 mph from West

Location: Saint John

Current Time: Dec 26, 2014 at 11:13:08 PM

Latest Report: Dec 26, 2014 at 10:00 PM


Visibility: 15 mi

Pressure: 29.97 "Hg

Humidity: 65%

Dew point: 25 °F

Location of QuispamsisLocation

Historic Weather in Quispamsis — Graph

°F

Quispamsis temperature yesterday

Maximum temperature yesterday: 57 °F (at 3:00 AM)
Minimum temperature yesterday: 41 °F (at 10:00 PM)
Average temperature yesterday: 51 °F

Past Weeks' High & Low Weather Summary

 TemperatureHumidityPressure
High57 °F (Dec 25, 3:00 AM)100% (Dec 12, 8:00 AM)30.48 "Hg (Dec 12, 8:00 AM)
Low23 °F (Dec 19, 10:00 PM)37% (Dec 26, 2:00 PM)29.37 "Hg (Dec 25, 3:00 PM)
Average33 °F88%29.97 "Hg
* Reported Dec 11 10:00 PM — Dec 26 10:00 PM, Quispamsis, Weather by CustomWeather, © 2014

Note: Actual official high and low records may vary slightly from our data, if they occured in-between our weather recording intervals... More about our weather records

Advertising

Quispamsis weather history for previous 24 hours

 ConditionsComfort  
Time TempWeatherWind HumidityBarometerVisibility
10:00 PM
Dec 26
36 °FClear.8 mph65%29.97 "Hg15 mi
9:00 PM36 °FClear.6 mph65%29.96 "Hg15 mi
8:00 PM37 °FClear.12 mph60%29.96 "Hg15 mi
7:00 PM39 °FClear.8 mph52%29.96 "Hg15 mi
6:00 PM39 °FClear.8 mph52%29.93 "Hg15 mi
5:00 PM41 °FClear.9 mph45%29.92 "Hg15 mi
4:00 PM45 °FSunny.14 mph42%29.89 "Hg15 mi
3:00 PM45 °FSunny.17 mph39%29.86 "Hg15 mi
2:00 PM46 °FPassing clouds.22 mph37%29.84 "Hg15 mi
1:00 PM45 °FPassing clouds.16 mph46%29.83 "Hg15 mi
12:00 PM43 °FScattered clouds.17 mph53%29.85 "Hg15 mi
11:00 AM41 °FPassing clouds.20 mph53%29.85 "Hg15 mi
10:00 AM39 °FPassing clouds.20 mph56%29.85 "Hg15 mi
9:00 AM39 °FPassing clouds.16 mph56%29.83 "Hg15 mi
8:00 AM37 °FPassing clouds.16 mph65%29.80 "Hg15 mi
7:00 AM37 °FPassing clouds.14 mph65%29.79 "Hg15 mi
6:00 AM36 °FPassing clouds.13 mph70%29.78 "Hg15 mi
5:00 AM36 °FPassing clouds.12 mph70%29.75 "Hg15 mi
4:00 AM37 °FPassing clouds.10 mph60%29.74 "Hg15 mi
3:00 AM39 °FOvercast.13 mph56%29.71 "Hg15 mi
2:00 AM41 °FPassing clouds.15 mph61%29.67 "Hg15 mi
1:00 AM41 °FPassing clouds.13 mph61%29.64 "Hg15 mi
12:00 AM41 °FPassing clouds.10 mph61%29.62 "Hg15 mi
11:00 PM
Dec 25
41 °FPassing clouds.15 mph70%29.59 "Hg15 mi
Weather by CustomWeather, © 2014

See weather overviewHow to use our weather pages